Regional Weather Roundup
Issued by NWS

Home | Current Version | Previous Version | Graphics & Text | Print | Product List | Glossary On
Versions: 1 2 3 4 5 6 7 8 9 10 11 12 13 14 15 16 17 18 19 20 21 22 23 24 25 26 27 28 29 30 31 32 33 34 35 36 37 38 39 40 41 42 43 44 45 46 47 48 49 50
000
ASUS43 KDMX 221507
RWRIA

WEATHER ROUNDUP FOR IOWA
NATIONAL WEATHER SERVICE DES MOINES IA
1000 AM CDT FRI MAY 22 2015

NOTE: "FAIR" INDICATES FEW OR NO CLOUDS BELOW 12,000 FEET WITH NO
SIGNIFICANT WEATHER AND/OR OBSTRUCTIONS TO VISIBILITY.

* - THESE STATIONS ARE NOT NWS STATIONS...THUS NOT UNDER NWS
QUALITY CONTROL.  THEY ALSO DO NOT REPORT WEATHER SUCH
AS PRECIPITATION OR FOG.

IAZ001>003-012>014-020>022-031>034-043>046-221600-
   NORTHWEST IOWA

CITY           SKY/WX    TMP DP  RH WIND       PRES   REMARKS
CARROLL *      SUNNY     66  39  37 NE3       30.22S
CHEROKEE *     SUNNY     63  46  55 CALM      30.23R
DENISON *      SUNNY     66  45  45 VRB3      30.21R
LE MARS *      SUNNY     64  43  45 CALM      30.22S
ORANGE CITY *  SUNNY     63  39  42 S5        30.22R
SHELDON *      SUNNY     66  34  30 S6        30.21R
SIOUX CITY     MOSUNNY   66  42  41 CALM      30.23R
SPENCER        SUNNY     66  39  37 CALM      30.22R
STORM LAKE *   SUNNY     66  34  30 VRB5      30.23S
$$

IAZ055>058-069>071-079>083-090>094-221600-
   SOUTHWEST IOWA

CITY           SKY/WX    TMP DP  RH WIND       PRES   REMARKS
ATLANTIC *     SUNNY     66  43  42 VRB5      30.23S
AUDUBON *      SUNNY     66  45  45 CALM      30.23S
CLARINDA *     SUNNY     63  48  59 CALM      30.26S
COUNCIL BLFS * SUNNY     63  46  55 CALM      30.24S
CRESTON *        N/A    N/A N/A N/A MISG        N/A
HARLAN  *      SUNNY     66  41  39 CALM      30.26S
LAMONI         PTSUNNY   68  48  48 NW6       30.24R
RED OAK *      SUNNY     63  50  63 CALM      30.25R
SHENANDOAH *   SUNNY     63  50  63 CALM      30.26R
$$

IAZ047>049-059>061-072>074-084-221600-
   CENTRAL IOWA

CITY           SKY/WX    TMP DP  RH WIND       PRES   REMARKS
AMES           SUNNY     65  40  39 CALM      30.22R
ANKENY *       SUNNY     64  46  52 VRB3      30.22S
CHARITON *     SUNNY     64  48  55 VRB3      30.23R
DES MOINES     CLOUDY    67  43  41 NW5       30.22R
GRINNELL*      SUNNY     66  37  34 CALM      30.22R
KNOXVILLE *    SUNNY     64  43  45 NW3       30.21R
MARSHALLTOWN   SUNNY     68  42  38 CALM      30.21R
PELLA *        MOSUNNY   66  50  55 CALM      30.23S
PERRY *          N/A     64  41  42 N3        30.22S
$$

IAZ004>006-015-016-023>025-035-036-221600-
   NORTH CENTRAL IOWA

CITY           SKY/WX    TMP DP  RH WIND       PRES   REMARKS
ALGONA *       SUNNY     64  41  42 VRB5      30.22S
CLARION *      SUNNY     66  39  37 NE6       30.21S
ESTHERVILLE    SUNNY     66  39  37 N3        30.21S
FORT DODGE *   SUNNY     63  45  51 CALM      30.23R
MASON CITY     SUNNY     68  37  32 CALM      30.23R
FOREST CITY *  SUNNY     61  41  48 CALM      30.22R
IOWA FALLS *     N/A     66  39  37 CALM      30.22R
$$

IAZ007>011-017>019-026>030-037>042-050>054-066-221600-
   NORTHEAST IOWA

CITY           SKY/WX    TMP DP  RH WIND       PRES   REMARKS
CEDAR RAPIDS   SUNNY     67  43  41 VRB5      30.20R
CHARLES CITY * SUNNY     68  34  28 VRB5      30.22R
CLINTON *      SUNNY     64  46  52 SE5       30.23R
DECORAH *      SUNNY     63  41  45 CALM      30.20R
DUBUQUE        SUNNY     62  45  53 CALM      30.21R
MONTICELLO *   SUNNY     64  46  52 W3        30.20R
OELWEIN *      SUNNY     66  39  37 NW3       30.21R
WATERLOO       SUNNY     65  44  46 CALM      30.20S
$$

IAZ064-065-067-068-078-221600-
   EAST CENTRAL IOWA

CITY           SKY/WX    TMP DP  RH WIND       PRES   REMARKS
DAVENPORT      SUNNY     66  43  43 SW3       30.20R
IOWA CITY      SUNNY     68  44  42 CALM      30.21R
MT. PLEASANT * SUNNY     66  45  45 CALM      30.21S
MUSCATINE *    SUNNY     66  43  42 CALM      30.21R
QUAD CITIES    SUNNY     67  44  43 VRB3      30.19R
$$

IAZ062-063-075>077-085>089-095>099-221600-
   SOUTHEAST IOWA

CITY           SKY/WX    TMP DP  RH WIND       PRES   REMARKS
BURLINGTON     SUNNY     66  49  54 CALM      30.20R
FAIRFIELD *    SUNNY     64  46  52 CALM      30.22R
FORT MADISON * SUNNY     64  48  55 CALM      30.21S
KEOKUK *       SUNNY     66  50  55 W3        30.21R
OSKALOOSA *      N/A     64  43  45 N5        30.22S
CENTERVILLE *  SUNNY     64  64 100 W3        30.24S
OTTUMWA        MOSUNNY   64  48  56 NW5       30.21R
WASHINGTON *   SUNNY     68  37  32 CALM      30.22R
$$

ABBREVIATIONS USED IN REMARKS
   TC - TEMPERATURES IN CELSIUS
  WCI - WIND CHILL INDEX
   HX - HEAT INDEX
  VSB - VISIBILITY
$$




USA.gov is the U.S. government's official web portal to all federal, state and local government web resources and services.